| time (UTC) | temp F | wind direction | speed knots | gust knots | rain 1hr in | rain 24hr in | rain mn in | humidity % | barometer mb |
| 20260502234319 | 70 | 225 | 7.0 | 7.8 | 0.00 | 0.00 | 0.00 | 58 | 1021.4 |
| 20260502233417 | 70 | 216 | 3.5 | 7.0 | 0.00 | 0.00 | 0.00 | 57 | 1021.5 |
| 20260502232417 | 70 | 225 | 4.3 | 5.2 | 0.00 | 0.00 | 0.00 | 58 | 1021.6 |
| 20260502230418 | 68 | 232 | 3.5 | 4.3 | 0.00 | 0.00 | 0.00 | 60 | 1022.2 |
| 20260502225517 | 68 | 205 | 3.5 | 6.1 | 0.00 | 0.00 | 0.00 | 61 | 1022.2 |
| 20260502223518 | 66 | 243 | 4.3 | 5.2 | 0.00 | 0.00 | 0.00 | 65 | 1022.6 |
| 20260502222617 | 65 | 227 | 3.5 | 4.3 | 0.00 | 0.00 | 0.00 | 66 | 1022.8 |
| 20260502220618 | 64 | 246 | 6.1 | 7.0 | 0.00 | 0.00 | 0.00 | 68 | 1023.3 |
| 20260502220517 | 64 | 242 | 5.2 | 6.1 | 0.00 | 0.00 | 0.00 | 67 | 1023.3 |
| 20260502215616 | 64 | 225 | 5.2 | 7.8 | 0.00 | 0.00 | 0.00 | 68 | 1023.5 |
| 20260502214618 | 63 | 215 | 6.1 | 9.6 | 0.00 | 0.00 | 0.00 | 69 | 1023.7 |
| 20260502213618 | 62 | 210 | 6.1 | 11.3 | 0.00 | 0.00 | 0.00 | 70 | 1023.8 |
| 20260502213519 | 62 | 224 | 7.8 | 11.3 | 0.00 | 0.00 | 0.00 | 69 | 1023.9 |
| 20260502211617 | 62 | 228 | 4.3 | 7.8 | 0.00 | 0.00 | 0.00 | 69 | 1024.1 |
| 20260502210618 | 63 | 224 | 9.6 | 12.2 | 0.00 | 0.00 | 0.00 | 69 | 1024.2 |
| 20260502205619 | 63 | 209 | 7.8 | 10.4 | 0.00 | 0.00 | 0.00 | 68 | 1024.1 |
| 20260502203716 | 62 | 242 | 4.3 | 7.8 | 0.00 | 0.00 | 0.00 | 69 | 1024.3 |
| 20260502202720 | 62 | 228 | 5.2 | 7.0 | 0.00 | 0.00 | 0.00 | 71 | 1024.4 |
| 20260502201719 | 62 | 225 | 4.3 | 7.0 | 0.00 | 0.00 | 0.00 | 71 | 1024.5 |
| 20260502200718 | 61 | 215 | 7.8 | 12.2 | 0.00 | 0.00 | 0.00 | 73 | 1024.4 |
| 20260502200619 | 61 | 210 | 9.6 | 13.0 | 0.00 | 0.00 | 0.00 | 72 | 1024.5 |
| 20260502195619 | 59 | 211 | 9.6 | 13.9 | 0.00 | 0.00 | 0.00 | 75 | 1024.7 |
| 20260502194717 | 59 | 229 | 5.2 | 9.6 | 0.00 | 0.00 | 0.00 | 76 | 1024.9 |
| 20260502193719 | 58 | 230 | 9.6 | 12.2 | 0.00 | 0.00 | 0.00 | 78 | 1024.7 |
| 20260502193616 | 57 | 232 | 8.7 | 10.4 | 0.00 | 0.00 | 0.00 | 78 | 1024.7 |
| 20260502192619 | 56 | 343 | 10.4 | 13.0 | 0.00 | 0.00 | 0.00 | 80 | 1024.0 |
| 20260502190619 | 57 | 45 | 7.8 | 10.4 | 0.00 | 0.00 | 0.00 | 77 | 1024.4 |
| 20260502185618 | 57 | 45 | 5.2 | 8.7 | 0.00 | 0.00 | 0.00 | 77 | 1025.1 |
| 20260502184618 | 57 | 315 | 0.0 | 0.0 | 0.00 | 0.00 | 0.00 | 77 | 1026.0 |
| 20260502183620 | 56 | 225 | 1.7 | 2.6 | 0.00 | 0.00 | 0.00 | 78 | 1026.3 |
| 20260502182617 | 56 | 210 | 0.9 | 3.5 | 0.00 | 0.00 | 0.00 | 79 | 1026.6 |
| 20260502181617 | 56 | 225 | 5.2 | 7.8 | 0.00 | 0.00 | 0.00 | 79 | 1026.5 |
| 20260502180717 | 56 | 204 | 1.7 | 7.8 | 0.00 | 0.00 | 0.00 | 79 | 1026.5 |
| 20260502163818 | 54 | 233 | 3.5 | 4.3 | 0.00 | 0.00 | 0.00 | 82 | 1026.7 |
| 20260502161820 | 53 | 225 | 3.5 | 3.5 | 0.00 | 0.00 | 0.00 | 84 | 1026.9 |
| 20260502160817 | 53 | 225 | 3.5 | 3.5 | 0.00 | 0.00 | 0.00 | 83 | 1026.8 |
| 20260502151917 | 52 | 211 | 4.3 | 8.7 | 0.00 | 0.00 | 0.00 | 85 | 1027.0 |
| 20260502150917 | 52 | 223 | 4.3 | 5.2 | 0.00 | 0.00 | 0.00 | 86 | 1026.9 |
| 20260502122817 | 52 | 220 | 7.0 | 9.6 | 0.00 | 0.00 | 0.00 | 85 | 1026.0 |
| 20260502121820 | 52 | 225 | 8.7 | 10.4 | 0.00 | 0.00 | 0.00 | 86 | 1025.9 |
| 20260502120916 | 52 | 232 | 7.0 | 12.2 | 0.00 | 0.00 | 0.00 | 86 | 1026.0 |
| 20260502115917 | 52 | 226 | 8.7 | 12.2 | 0.00 | 0.00 | 0.00 | 85 | 1025.8 |
| 20260502114019 | 52 | 225 | 7.0 | 9.6 | 0.00 | 0.00 | 0.00 | 85 | 1025.7 |
| 20260502113117 | 53 | 225 | 4.3 | 6.1 | 0.00 | 0.00 | 0.00 | 84 | 1025.8 |
| 20260502111118 | 53 | 225 | 0.0 | 0.9 | 0.00 | 0.00 | 0.00 | 84 | 1025.8 |
| 20260502110217 | 53 | 225 | 3.5 | 4.3 | 0.00 | 0.00 | 0.00 | 84 | 1026.1 |
| 20260502104316 | 53 | 223 | 5.2 | 7.0 | 0.00 | 0.00 | 0.00 | 83 | 1026.3 |
| 20260502103317 | 53 | 212 | 7.0 | 10.4 | 0.00 | 0.00 | 0.00 | 83 | 1026.4 |
| 20260502102318 | 53 | 218 | 6.1 | 9.6 | 0.00 | 0.00 | 0.00 | 82 | 1026.5 |
| 20260502101319 | 53 | 225 | 5.2 | 7.0 | 0.00 | 0.00 | 0.00 | 82 | 1026.4 |
| 20260502100317 | 54 | 221 | 3.5 | 5.2 | 0.00 | 0.00 | 0.00 | 82 | 1026.5 |
| 20260502091418 | 54 | 229 | 7.0 | 11.3 | 0.00 | 0.00 | 0.00 | 80 | 1027.4 |
| 20260502090418 | 54 | 226 | 10.4 | 13.9 | 0.00 | 0.00 | 0.00 | 81 | 1027.4 |
| 20260502071417 | 56 | 211 | 10.4 | 14.8 | 0.00 | 0.00 | 0.00 | 76 | 1026.6 |
| 20260502070418 | 57 | 219 | 8.7 | 13.0 | 0.00 | 0.00 | 0.00 | 75 | 1026.8 |
| 20260502064524 | 57 | 223 | 10.4 | 15.6 | 0.00 | 0.00 | 0.00 | 76 | 1026.1 |
| 20260502063525 | 58 | 211 | 8.7 | 11.3 | 0.00 | 0.00 | 0.00 | 73 | 1026.1 |
| 20260502062525 | 58 | 225 | 7.8 | 12.2 | 0.00 | 0.00 | 0.00 | 72 | 1026.3 |
| 20260502061526 | 59 | 212 | 8.7 | 13.0 | 0.00 | 0.00 | 0.00 | 71 | 1026.3 |
| 20260502055527 | 60 | 217 | 10.4 | 19.1 | 0.00 | 0.00 | 0.00 | 69 | 1026.1 |
| 20260502053524 | 61 | 210 | 12.2 | 20.0 | 0.00 | 0.00 | 0.00 | 68 | 1026.0 |
| 20260502051524 | 62 | 224 | 8.7 | 13.0 | 0.00 | 0.00 | 0.00 | 65 | 1025.9 |
| 20260502051425 | 62 | 220 | 6.1 | 9.6 | 0.00 | 0.00 | 0.00 | 64 | 1026.0 |
| 20260502050426 | 63 | 224 | 12.2 | 15.6 | 0.00 | 0.00 | 0.00 | 62 | 1025.6 |
| 20260502050327 | 63 | 222 | 10.4 | 15.6 | 0.00 | 0.00 | 0.00 | 62 | 1025.6 |
| 20260502044326 | 64 | 227 | 7.0 | 8.7 | 0.00 | 0.00 | 0.00 | 60 | 1025.2 |
| 20260502043326 | 65 | 225 | 8.7 | 11.3 | 0.00 | 0.00 | 0.00 | 57 | 1025.1 |
| 20260502042327 | 66 | 223 | 6.1 | 9.6 | 0.00 | 0.00 | 0.00 | 55 | 1024.8 |
| 20260502041425 | 67 | 223 | 7.0 | 9.6 | 0.00 | 0.00 | 0.00 | 53 | 1024.9 |
| 20260502040426 | 67 | 224 | 7.8 | 12.2 | 0.00 | 0.00 | 0.00 | 54 | 1024.9 |
| 20260502034425 | 67 | 213 | 3.5 | 6.1 | 0.00 | 0.00 | 0.00 | 55 | 1024.7 |
| 20260502032526 | 68 | 219 | 6.1 | 9.6 | 0.00 | 0.00 | 0.00 | 55 | 1024.2 |
| 20260502031428 | 68 | 223 | 6.1 | 8.7 | 0.00 | 0.00 | 0.00 | 54 | 1024.3 |
| 20260502030429 | 69 | 226 | 7.8 | 11.3 | 0.00 | 0.00 | 0.00 | 53 | 1024.3 |
| 20260502025525 | 69 | 226 | 7.0 | 9.6 | 0.00 | 0.00 | 0.00 | 53 | 1024.3 |
| 20260502024525 | 70 | 225 | 9.6 | 12.2 | 0.00 | 0.00 | 0.00 | 52 | 1024.0 |
| 20260502021526 | 70 | 225 | 8.7 | 11.3 | 0.00 | 0.00 | 0.00 | 50 | 1023.6 |
| 20260502020624 | 71 | 228 | 9.6 | 13.0 | 0.00 | 0.00 | 0.00 | 50 | 1023.7 |
| 20260502014627 | 71 | 227 | 11.3 | 15.6 | 0.00 | 0.00 | 0.00 | 49 | 1023.6 |
| 20260502013626 | 71 | 227 | 13.9 | 17.4 | 0.00 | 0.00 | 0.00 | 49 | 1023.6 |
| 20260502012625 | 71 | 233 | 10.4 | 14.8 | 0.00 | 0.00 | 0.00 | 48 | 1023.4 |
| 20260502011633 | 71 | 221 | 11.3 | 18.2 | 0.00 | 0.00 | 0.00 | 49 | 1023.3 |
| 20260502010727 | 71 | 221 | 13.0 | 15.6 | 0.00 | 0.00 | 0.00 | 50 | 1023.1 |
| 20260502005824 | 71 | 225 | 13.0 | 16.5 | 0.00 | 0.00 | 0.00 | 50 | 1023.1 |
| 20260502004826 | 72 | 223 | 12.2 | 17.4 | 0.00 | 0.00 | 0.00 | 50 | 1022.9 |
| 20260502003924 | 71 | 223 | 15.6 | 20.9 | 0.00 | 0.00 | 0.00 | 50 | 1022.8 |
| 20260502001926 | 71 | 226 | 10.4 | 13.9 | 0.00 | 0.00 | 0.00 | 51 | 1023.0 |
| 20260502001025 | 72 | 219 | 10.4 | 13.9 | 0.00 | 0.00 | 0.00 | 50 | 1022.9 |
| 20260502000026 | 72 | 223 | 9.6 | 13.0 | 0.00 | 0.00 | 0.00 | 50 | 1022.9 |